This is the latest recevied weather packets stored in our database for station/object K4MGY-13. If no packets are shown the sender has not sent any weather packets the latest 1 day(s).
| Time | Temp. | Humidity | Pressure | Rain* | Wind** | Luminosity | Snow |
|---|---|---|---|---|---|---|---|
| 1778040699 | 21.11° C | 64% | 1007.1 hPa | 0 mm | 0.89 m/s, 194° | - | - |
| 1778040400 | 21.11° C | 64% | 1007.5 hPa | 0 mm | 1.34 m/s, 209° | - | - |
| 1778040100 | 21.67° C | 63% | 1007.5 hPa | 0 mm | 1.34 m/s, 183° | - | - |
| 1778039799 | 21.67° C | 63% | 1007.5 hPa | 0 mm | 0.89 m/s, 183° | - | - |
| 1778039499 | 21.67° C | 64% | 1007.8 hPa | 0 mm | 1.34 m/s, 199° | - | - |
| 1778039171 | 21.67° C | 64% | 1007.5 hPa | 0 mm | 1.34 m/s, 201° | - | - |
| 1778038840 | 21.67° C | 64% | 1007.5 hPa | 0 mm | 1.34 m/s, 201° | - | - |
| 1778038539 | 21.11° C | 64% | 1007.5 hPa | 0 mm | 0.89 m/s, 190° | - | - |
| 1778038209 | 21.67° C | 64% | 1007.1 hPa | 0 mm | 2.24 m/s, 203° | - | - |
| 1778037909 | 21.67° C | 64% | 1007.5 hPa | 0 mm | 2.24 m/s, 202° | - | - |
| 1778037579 | 21.67° C | 64% | 1007.5 hPa | 0 mm | 0.89 m/s, 203° | - | - |
| 1778037279 | 21.67° C | 64% | 1007.5 hPa | 0 mm | 1.34 m/s, 199° | - | - |
| 1778036949 | 21.67° C | 64% | 1007.5 hPa | 0 mm | 1.34 m/s, 168° | - | - |
| 1778036649 | 21.67° C | 64% | 1007.8 hPa | 0 mm | 1.34 m/s, 210° | - | - |
| 1778036319 | 21.67° C | 63% | 1007.5 hPa | 0 mm | 1.34 m/s, 200° | - | - |
| 1778035989 | 21.67° C | 63% | 1007.8 hPa | 0 mm | 2.24 m/s, 225° | - | - |
| 1778035659 | 21.67° C | 63% | 1007.8 hPa | 0 mm | 1.34 m/s, 204° | - | - |
| 1778035362 | 21.67° C | 63% | 1007.5 hPa | 0 mm | 1.34 m/s, 206° | - | - |
| 1778035029 | 21.67° C | 63% | 1007.5 hPa | 0 mm | 0.89 m/s, 185° | - | - |
| 1778034700 | 21.67° C | 63% | 1007.5 hPa | 0 mm | 0.89 m/s, 189° | - | - |
| 1778034399 | 21.67° C | 63% | 1007.5 hPa | 0 mm | 1.34 m/s, 209° | - | - |
| 1778033800 | 21.67° C | 62% | 1007.5 hPa | 0 mm | 1.34 m/s, 197° | - | - |
| 1778033499 | 21.67° C | 62% | 1007.5 hPa | 0 mm | 2.24 m/s, 195° | - | - |
| 1778032869 | 21.67° C | 61% | 1007.8 hPa | 0 mm | 2.24 m/s, 218° | - | - |
| 1778032571 | 21.67° C | 61% | 1007.8 hPa | 0 mm | 1.34 m/s, 220° | - | - |
* Rain latest hour (hover to see other rain measurements)
** Current wind speed in m/s (hover to see current wind gust speed)